Weather History for Reno, NV

Change the Weather History Date:

Friday, June 21, 2013

  Actual Average Record
Temperature  
Mean Temperature 63 °F 69 °F  
Max Temperature 77 °F 85 °F 100 °F (2001)
Min Temperature 49 °F 53 °F 31 °F (1960)
Degree Days  
Heating Degree Days 2 1  
Month to date heating degree days 11 49  
Since 1 June heating degree days 11 49  
Since 1 July heating degree days 4445 4917  
Cooling Degree Days 0 5  
Month to date cooling degree days 141 78  
Year to date cooling degree days 177 115  
Since 1 June cooling degree days 141 78  
Growing Degree Days 12 (Base 50)    
Moisture  
Dew Point 30 °F    
Average Humidity 32    
Maximum Humidity 52    
Minimum Humidity 12    
Precipitation  
Precipitation 0.00 in 0.01 in 0.39 in (1951)
Month to date precipitation 0.11 0.40  
Year to date precipitation 1.42 4.17  
Snow  
Snow 0.00 in 0.00 in 0.00 in ()
Month to date snowfall 0.0 0.0  
Since 1 June snowfall 0.0 0.0  
Since 1 July snowfall 9.4 21.8  
Snow Depth 0.00 in    
Sea Level Pressure  
Sea Level Pressure 29.94 in    
Wind  
Wind Speed 5 mph (North)    
Max Wind Speed 15 mph    
Max Gust Speed 26 mph    
Visibility 10 miles    
Events      
T = Trace of Precipitation, MM = Missing Value Source: NWS Daily Summary

Daily Weather History Graph

Daily Weather History Graph

Search for Another Location

Airport:

Trip Planner

Search our weather history database for the weather conditions in past years. The results will help you decide how hot, cold, wet, or windy it might be!

Date:

Astronomy

Jun. 21, 2013 Rise Set
Actual Time 5:32 AM PDT 8:29 PM PDT
Civil Twilight 4:59 AM PDT 9:02 PM PDT
Nautical Twilight 4:18 AM PDT 9:43 PM PDT
Astronomical Twilight 3:30 AM PDT 10:31 PM PDT
Moon 6:46 PM PDT (6/21) 3:51 AM PDT (6/21)
Length of Visible Light 16h 02m
Length of Day
14h 57m
Waxing Gibbous, 96% of the Moon is Illuminated
Jun 21
Waxing Gibbous
Jun 23
Full
Jun 29
Last Quarter
Jul 8
New
Jul 15
First Quarter

Hourly Weather History & Observations

Time (PDT) Temp. Dew Point Humidity Pressure Visibility Wind Dir Wind Speed Gust Speed Precip Events Conditions
12:55 AM 57.0 °F 32.0 °F 39% 29.97 in 10.0 mi North 10.4 mph - N/A   Clear
1:55 AM 55.9 °F 33.1 °F 42% 29.97 in 10.0 mi North 5.8 mph - N/A   Clear
2:55 AM 53.1 °F 34.0 °F 48% 29.99 in 10.0 mi NNE 4.6 mph - N/A   Clear
3:55 AM 52.0 °F 34.0 °F 50% 29.98 in 10.0 mi Calm Calm - N/A   Clear
4:55 AM 50.0 °F 33.1 °F 52% 30.00 in 10.0 mi West 5.8 mph - N/A   Clear
5:55 AM 50.0 °F 32.0 °F 50% 30.01 in 10.0 mi Calm Calm - N/A   Partly Cloudy
6:55 AM 51.1 °F 34.0 °F 52% 30.01 in 10.0 mi Calm Calm - N/A   Partly Cloudy
7:55 AM 55.9 °F 34.0 °F 44% 30.00 in 10.0 mi South 3.5 mph - N/A   Partly Cloudy
8:55 AM 60.1 °F 34.0 °F 38% 29.99 in 10.0 mi Variable 3.5 mph - N/A   Partly Cloudy
9:55 AM 61.0 °F 35.1 °F 38% 29.98 in 10.0 mi Calm Calm - N/A   Partly Cloudy
10:55 AM 64.9 °F 34.0 °F 32% 29.96 in 10.0 mi Calm Calm - N/A   Partly Cloudy
11:55 AM 68.0 °F 33.1 °F 27% 29.95 in 10.0 mi WSW 4.6 mph - N/A   Scattered Clouds
12:55 PM 71.1 °F 30.9 °F 23% 29.94 in 10.0 mi SE 6.9 mph - N/A   Scattered Clouds
1:55 PM 73.0 °F 30.9 °F 21% 29.92 in 10.0 mi East 8.1 mph - N/A   Scattered Clouds
2:55 PM 75.9 °F 28.0 °F 17% 29.90 in 10.0 mi Variable 5.8 mph - N/A   Scattered Clouds
3:55 PM 75.9 °F 28.0 °F 17% 29.89 in 10.0 mi ESE 5.8 mph 16.1 mph N/A   Scattered Clouds
4:55 PM 77.0 °F 26.1 °F 15% 29.87 in 10.0 mi East 3.5 mph - N/A   Scattered Clouds
5:55 PM 75.9 °F 19.9 °F 12% 29.86 in 10.0 mi North 5.8 mph 17.3 mph N/A   Scattered Clouds
6:55 PM 75.0 °F 25.0 °F 16% 29.88 in 10.0 mi NE 8.1 mph - N/A   Scattered Clouds
7:55 PM 75.0 °F 27.0 °F 17% 29.88 in 10.0 mi NNE 9.2 mph - N/A   Scattered Clouds
8:55 PM 73.0 °F 27.0 °F 18% 29.89 in 10.0 mi NNW 11.5 mph - N/A   Scattered Clouds
9:55 PM 70.0 °F 36.0 °F 29% 29.92 in 10.0 mi NW 10.4 mph - N/A   Partly Cloudy
10:55 PM 66.9 °F 28.0 °F 23% 29.94 in 10.0 mi NW 10.4 mph 17.3 mph N/A   Partly Cloudy
11:55 PM 64.0 °F 21.9 °F 20% 29.96 in 10.0 mi Calm Calm - N/A   Clear